Thunderstorms From: 15-12-2017 06:00 Until: 16-12-2017 06:00 warning for: Thunderstorms Level: Yellow info button

Although rather usual in this region, locally or potentially dangerous phenomena are expected. (such as local winds, summer thunderstorms, rising streams or high waves) Be aware and pay attention to the latest weather updates, especially if you carry out activities exposed to weather or close to a stream or shoreline. 


Meteo18 Weather Cam more information Meteo18 Weather Cam


warning for Thunderstorms more information blitzortung!


Rain radar more information rain snow radar


Visit our other weather sites:

Template documentation
and downloads

And another site



Weather Underground History page Text

Daily Summary for February 27, 2017 Units:  English    Metric   Both
« Previous Day
Next Day »
Daily Weekly Monthly Yearly Custom
  High: Low: Average:
Temperature: 56.1 °F 41.9 °F 49.5 °F
Dew Point: 46.9 °F 37.9 °F 44.1 °F
Humidity: 91 % 66 % 82 %
Wind Speed: 31 mph 3 mph 12 mph
Wind Gust: 44 mph - -
Wind:- - SW
Pressure: 30 in 29.5 in -
Precipitation: 0.25 in    
Historical Graphs
 
 
Tabular Data for February 27, 2017
Time Temperature Dew Point Pressure Wind Wind Speed Wind Gust Humidity Rainfall Rate (Hourly)
00:02 48.9 °F 45.9 °F 30 in SSW 7 mph 9 mph 89 % 0 in
00:12 48.9 °F 45.9 °F 30 in SSW 5 mph 9 mph 89 % 0 in
00:17 48.9 °F 45.9 °F 30 in SW 4 mph 10 mph 89 % 0 in
00:22 48.9 °F 45.9 °F 30 in SSW 4 mph 10 mph 89 % 0 in
00:32 48.9 °F 45.9 °F 30 in SW 8 mph 9 mph 89 % 0 in
00:37 49.1 °F 45.7 °F 30 in SSW 5 mph 9 mph 88 % 0 in
00:42 49.3 °F 45.9 °F 30 in SW 4 mph 10 mph 88 % 0 in
00:47 49.3 °F 45.9 °F 30 in SSW 7 mph 10 mph 88 % 0 in
00:52 49.5 °F 46 °F 30 in SW 5 mph 12 mph 88 % 0 in
00:57 49.3 °F 45.9 °F 30 in SSW 6 mph 12 mph 88 % 0 in
01:02 49.3 °F 45.9 °F 30 in SW 4 mph 11 mph 88 % 0 in
01:12 49.3 °F 45.9 °F 30 in SW 7 mph 10 mph 88 % 0 in
01:17 49.3 °F 45.9 °F 30 in SSW 6 mph 10 mph 88 % 0 in
01:22 49.1 °F 45.7 °F 30 in SSW 7 mph 10 mph 88 % 0 in
01:32 49.1 °F 45.7 °F 29.9 in SSW 6 mph 10 mph 88 % 0 in
01:37 49.1 °F 45.7 °F 29.9 in SW 4 mph 12 mph 88 % 0 in
01:42 49.1 °F 45.7 °F 29.9 in SW 6 mph 12 mph 88 % 0 in
01:47 49.1 °F 45.7 °F 29.9 in SSW 5 mph 12 mph 88 % 0 in
01:52 49.1 °F 45.7 °F 29.9 in South 5 mph 13 mph 88 % 0 in
01:57 48.9 °F 45.9 °F 29.9 in SSW 4 mph 13 mph 89 % 0 in
02:02 48.9 °F 45.9 °F 29.9 in SW 9 mph 13 mph 89 % 0 in
02:12 48.7 °F 45.7 °F 29.9 in SSW 3 mph 10 mph 89 % 0 in
02:17 48.7 °F 45.7 °F 29.9 in SSW 11 mph 11 mph 89 % 0 in
02:22 48.7 °F 45.7 °F 29.9 in SSW 4 mph 10 mph 89 % 0 in
02:32 48.7 °F 45.3 °F 29.9 in SW 11 mph 12 mph 88 % 0 in
02:42 48.9 °F 45.5 °F 29.9 in South 8 mph 13 mph 88 % 0 in
02:47 48.9 °F 45.1 °F 29.9 in South 5 mph 13 mph 87 % 0 in
02:52 48.9 °F 45.1 °F 29.9 in SSW 7 mph 13 mph 87 % 0 in
03:02 48.9 °F 45.5 °F 29.9 in SW 5 mph 13 mph 88 % 0 in
03:12 48.7 °F 45.3 °F 29.9 in SW 4 mph 10 mph 88 % 0 in
03:17 48.7 °F 45.3 °F 29.9 in SW 7 mph 10 mph 88 % 0 in
03:22 48.7 °F 45.3 °F 29.9 in SSW 8 mph 10 mph 88 % 0 in
03:27 48.7 °F 45.3 °F 29.9 in SSW 6 mph 11 mph 88 % 0 in
03:32 48.9 °F 45.5 °F 29.9 in SW 5 mph 11 mph 88 % 0 in
03:42 48.9 °F 45.1 °F 29.9 in SW 8 mph 14 mph 87 % 0 in
03:47 48.7 °F 45 °F 29.9 in SSW 9 mph 14 mph 87 % 0 in
03:52 48.7 °F 45.3 °F 29.9 in SSW 6 mph 14 mph 88 % 0 in
03:57 48.7 °F 45.3 °F 29.9 in SW 7 mph 14 mph 88 % 0 in
04:02 48.7 °F 45.3 °F 29.9 in SSW 8 mph 13 mph 88 % 0 in
04:12 48.7 °F 45.3 °F 29.9 in SSW 11 mph 11 mph 88 % 0 in
04:17 48.6 °F 45.1 °F 29.9 in SSW 12 mph 13 mph 88 % 0 in
04:22 48.7 °F 45.3 °F 29.9 in SW 6 mph 13 mph 88 % 0 in
04:27 48.6 °F 45.1 °F 29.9 in SSW 8 mph 15 mph 88 % 0 in
04:32 48.6 °F 45.1 °F 29.9 in SSW 10 mph 15 mph 88 % 0 in
04:42 48.7 °F 45.3 °F 29.9 in SSW 6 mph 13 mph 88 % 0 in
04:47 48.7 °F 45 °F 29.9 in SSW 10 mph 13 mph 87 % 0 in
04:52 48.7 °F 45 °F 29.9 in South 8 mph 14 mph 87 % 0 in
04:57 48.9 °F 45 °F 29.9 in South 7 mph 16 mph 86 % 0 in
05:02 49.1 °F 45.1 °F 29.9 in SW 8 mph 16 mph 86 % 0 in
05:12 49.3 °F 45 °F 29.9 in SW 9 mph 17 mph 85 % 0 in
05:17 49.3 °F 45 °F 29.9 in South 5 mph 17 mph 85 % 0 in
05:22 48.9 °F 45 °F 29.9 in SSW 8 mph 17 mph 86 % 0 in
05:27 48.9 °F 45 °F 29.9 in South 9 mph 15 mph 86 % 0 in
05:32 48.7 °F 44.8 °F 29.9 in South 10 mph 15 mph 86 % 0 in
05:37 48.7 °F 44.8 °F 29.9 in SSW 14 mph 15 mph 86 % 0 in
05:42 48.7 °F 44.8 °F 29.9 in SW 11 mph 15 mph 86 % 0 in
05:52 48.7 °F 44.8 °F 29.9 in SSW 10 mph 16 mph 86 % 0 in
05:57 48.7 °F 44.8 °F 29.9 in SSW 5 mph 17 mph 86 % 0 in
06:02 48.7 °F 44.8 °F 29.9 in SW 7 mph 17 mph 86 % 0 in
06:12 48.7 °F 44.8 °F 29.8 in SSW 7 mph 17 mph 86 % 0 in
06:17 48.7 °F 44.4 °F 29.8 in SW 13 mph 15 mph 85 % 0 in
06:22 48.9 °F 44.6 °F 29.8 in SSW 7 mph 15 mph 85 % 0 in
06:27 48.7 °F 44.4 °F 29.8 in SSW 12 mph 15 mph 85 % 0 in
06:32 48.7 °F 44.4 °F 29.8 in South 5 mph 15 mph 85 % 0 in
06:42 48.7 °F 44.4 °F 29.8 in SSW 8 mph 15 mph 85 % 0 in
06:52 48.6 °F 44.2 °F 29.8 in SW 6 mph 14 mph 85 % 0 in
06:57 48.6 °F 44.2 °F 29.8 in SSW 8 mph 14 mph 85 % 0 in
07:02 48.6 °F 44.2 °F 29.8 in SSW 9 mph 13 mph 85 % 0 in
07:12 48.6 °F 44.2 °F 29.8 in SSW 8 mph 13 mph 85 % 0 in
07:17 48.6 °F 44.2 °F 29.8 in South 8 mph 13 mph 85 % 0 in
07:22 48.7 °F 44.4 °F 29.8 in SSW 10 mph 13 mph 85 % 0 in
07:27 48.6 °F 44.2 °F 29.8 in SSW 8 mph 13 mph 85 % 0 in
07:32 48.6 °F 44.2 °F 29.8 in SSW 6 mph 13 mph 85 % 0 in
07:42 48.6 °F 44.2 °F 29.8 in SSW 5 mph 13 mph 85 % 0 in
07:47 48.6 °F 43.9 °F 29.8 in South 4 mph 10 mph 84 % 0 in
07:52 48.6 °F 44.2 °F 29.8 in South 6 mph 10 mph 85 % 0 in
07:57 48.4 °F 44.1 °F 29.8 in South 7 mph 9 mph 85 % 0 in
08:02 48.4 °F 44.1 °F 29.8 in SSW 3 mph 9 mph 85 % 0 in
08:12 48.6 °F 43.9 °F 29.8 in SSW 5 mph 10 mph 84 % 0 in
08:17 48.7 °F 44.1 °F 29.8 in SSW 5 mph 12 mph 84 % 0 in
08:22 48.7 °F 43.9 °F 29.8 in SW 6 mph 12 mph 83 % 0 in
08:27 48.7 °F 43.9 °F 29.8 in SSW 8 mph 13 mph 83 % 0 in
08:32 48.9 °F 44.1 °F 29.8 in SSW 6 mph 13 mph 83 % 0 in
08:37 49.1 °F 43.9 °F 29.8 in SSW 9 mph 16 mph 82 % 0 in
08:42 49.3 °F 44.1 °F 29.8 in SSW 12 mph 16 mph 82 % 0 in
08:47 49.6 °F 44.1 °F 29.8 in South 11 mph 16 mph 81 % 0 in
08:52 49.8 °F 44.2 °F 29.8 in SW 8 mph 16 mph 81 % 0 in
09:02 50.2 °F 44.2 °F 29.8 in SSW 11 mph 16 mph 80 % 0 in
09:12 50.4 °F 43.7 °F 29.8 in SSW 8 mph 18 mph 78 % 0 in
09:17 50.4 °F 43.7 °F 29.8 in SSE 14 mph 18 mph 78 % 0 in
09:22 50.4 °F 43.3 °F 29.8 in South 11 mph 18 mph 77 % 0 in
09:27 50.5 °F 43.3 °F 29.8 in South 14 mph 18 mph 76 % 0 in
09:32 50.5 °F 43.5 °F 29.8 in SSW 4 mph 18 mph 77 % 0 in
09:37 50.7 °F 43.7 °F 29.8 in SSW 8 mph 18 mph 77 % 0 in
09:42 50.9 °F 43.5 °F 29.8 in South 7 mph 18 mph 76 % 0 in
09:47 50.9 °F 43.5 °F 29.8 in SSW 8 mph 15 mph 76 % 0 in
09:52 51.1 °F 43.7 °F 29.8 in SSW 5 mph 15 mph 76 % 0 in
09:57 51.1 °F 43.7 °F 29.8 in South 8 mph 15 mph 76 % 0 in
10:02 51.3 °F 43.9 °F 29.8 in SSW 9 mph 15 mph 76 % 0 in
10:12 51.3 °F 43.9 °F 29.7 in SSE 10 mph 15 mph 76 % 0 in
10:17 51.3 °F 43.5 °F 29.7 in SSE 5 mph 17 mph 75 % 0 in
10:22 51.3 °F 43.3 °F 29.7 in SSW 12 mph 17 mph 74 % 0 in
10:27 51.3 °F 43.5 °F 29.7 in SSW 6 mph 19 mph 75 % 0 in
10:32 51.3 °F 43.5 °F 29.7 in SE 16 mph 19 mph 75 % 0 in
10:42 51.6 °F 43.9 °F 29.7 in SE 7 mph 19 mph 75 % 0 in
10:47 51.6 °F 43.9 °F 29.7 in SSW 12 mph 22 mph 75 % 0 in
10:52 51.6 °F 43.9 °F 29.7 in South 10 mph 22 mph 75 % 0 in
11:02 51.8 °F 44.1 °F 29.7 in South 8 mph 19 mph 75 % 0 in
11:12 52 °F 44.2 °F 29.7 in SSW 12 mph 19 mph 75 % 0 in
11:17 52 °F 44.2 °F 29.7 in SSW 11 mph 22 mph 75 % 0 in
11:22 52.2 °F 44.8 °F 29.7 in SSE 16 mph 22 mph 76 % 0 in
11:27 52.2 °F 44.8 °F 29.7 in SSE 10 mph 24 mph 76 % 0 in
11:32 52.3 °F 45 °F 29.7 in South 9 mph 24 mph 76 % 0 in
11:42 53.4 °F 45.3 °F 29.7 in South 19 mph 24 mph 74 % 0 in
11:47 53.8 °F 46 °F 29.7 in SSW 13 mph 22 mph 75 % 0 in
11:52 54 °F 45.9 °F 29.7 in SSW 9 mph 22 mph 74 % 0 in
11:57 54 °F 45.9 °F 29.7 in SSW 16 mph 27 mph 74 % 0 in
12:02 54.1 °F 46 °F 29.7 in SW 17 mph 27 mph 74 % 0 in
12:07 54.1 °F 45.7 °F 29.7 in SSW 23 mph 25 mph 73 % 0 in
12:12 54.3 °F 45.9 °F 29.7 in SSW 15 mph 25 mph 73 % 0 in
12:17 54.1 °F 45.7 °F 29.7 in South 21 mph 26 mph 73 % 0 in
12:22 54 °F 46.2 °F 29.7 in SSW 14 mph 26 mph 75 % 0 in
12:32 53.6 °F 45.9 °F 29.7 in SSW 14 mph 29 mph 75 % 0 in
12:37 53.8 °F 46 °F 29.7 in SSW 11 mph 23 mph 75 % 0 in
12:42 53.8 °F 46.4 °F 29.7 in SSW 18 mph 23 mph 76 % 0 in
12:52 54 °F 46.2 °F 29.7 in SSW 19 mph 24 mph 75 % 0 in
13:02 54.3 °F 46.2 °F 29.6 in SW 18 mph 24 mph 74 % 0 in
13:12 54.9 °F 46.8 °F 29.6 in SW 19 mph 24 mph 74 % 0 in
13:17 55 °F 46.9 °F 29.6 in SSW 21 mph 24 mph 74 % 0 in
13:22 55.4 °F 46.9 °F 29.6 in SSW 15 mph 24 mph 73 % 0 in
13:27 55.6 °F 46.4 °F 29.6 in SW 19 mph 24 mph 71 % 0 in
13:32 55.9 °F 46.2 °F 29.6 in SW 25 mph 28 mph 70 % 0 in
13:37 55.9 °F 46.2 °F 29.6 in SW 24 mph 32 mph 70 % 0 in
13:42 56.1 °F 45.7 °F 29.6 in SW 22 mph 32 mph 68 % 0 in
13:47 55.9 °F 45.5 °F 29.6 in SW 20 mph 32 mph 68 % 0 in
13:52 55.9 °F 45.1 °F 29.6 in SW 19 mph 32 mph 67 % 0 in
13:57 55.9 °F 45.1 °F 29.6 in SW 24 mph 32 mph 67 % 0 in
14:02 55.9 °F 45.1 °F 29.6 in SW 27 mph 32 mph 67 % 0 in
14:12 55.9 °F 45.1 °F 29.6 in SW 23 mph 31 mph 67 % 0 in
14:17 55.9 °F 45.5 °F 29.6 in SSW 15 mph 31 mph 68 % 0 in
14:22 56.1 °F 45.3 °F 29.6 in SW 20 mph 33 mph 67 % 0 in
14:32 56.1 °F 45 °F 29.6 in SW 19 mph 33 mph 66 % 0 in
14:42 56.1 °F 45.3 °F 29.6 in SSW 19 mph 32 mph 67 % 0 in
14:47 55.9 °F 45.5 °F 29.6 in SW 21 mph 32 mph 68 % 0 in
14:52 55.9 °F 45.5 °F 29.6 in SW 22 mph 32 mph 68 % 0 in
14:57 55.8 °F 45 °F 29.6 in SW 19 mph 32 mph 67 % 0 in
15:02 55.8 °F 45 °F 29.6 in SSW 18 mph 26 mph 67 % 0 in
15:12 55.8 °F 45.3 °F 29.6 in SW 26 mph 37 mph 68 % 0 in
15:17 55.8 °F 45.3 °F 29.6 in SW 15 mph 37 mph 68 % 0 in
15:22 55.8 °F 45.3 °F 29.6 in SW 24 mph 36 mph 68 % 0 in
15:32 55.8 °F 45.3 °F 29.6 in SW 28 mph 36 mph 68 % 0 in
15:37 55.6 °F 45.5 °F 29.6 in SSW 15 mph 35 mph 69 % 0 in
15:42 55.8 °F 45.3 °F 29.6 in SW 18 mph 35 mph 68 % 0 in
15:47 55.8 °F 45.3 °F 29.6 in SSW 15 mph 35 mph 68 % 0 in
15:52 55.6 °F 45.5 °F 29.6 in SW 20 mph 34 mph 69 % 0 in
15:57 55.6 °F 45.5 °F 29.6 in SW 18 mph 34 mph 69 % 0 in
16:02 55.6 °F 45.5 °F 29.6 in SW 12 mph 33 mph 69 % 0 in
16:12 55.2 °F 45.1 °F 29.6 in SSW 26 mph 32 mph 69 % 0 in
16:17 52 °F 46 °F 29.6 in NW 24 mph 33 mph 80 % 0.02 in
16:22 49.3 °F 45 °F 29.6 in WSW 20 mph 44 mph 85 % 0.02 in
16:32 48.7 °F 44.8 °F 29.6 in WSW 28 mph 44 mph 86 % 0.07 in
16:37 48.6 °F 44.8 °F 29.6 in WSW 13 mph 38 mph 87 % 0.07 in
16:42 48.6 °F 44.6 °F 29.6 in WSW 22 mph 36 mph 86 % 0.07 in
16:52 49.3 °F 44.1 °F 29.6 in SSW 13 mph 35 mph 82 % 0.08 in
16:57 49.5 °F 44.6 °F 29.6 in SW 11 mph 31 mph 83 % 0.08 in
17:02 49.8 °F 44.8 °F 29.6 in SW 14 mph 31 mph 83 % 0.08 in
17:12 50.2 °F 45.5 °F 29.6 in SW 17 mph 27 mph 84 % 0.08 in
17:17 50.2 °F 45.1 °F 29.6 in SSW 9 mph 27 mph 83 % 0.06 in
17:22 50.5 °F 45.3 °F 29.6 in SW 23 mph 24 mph 82 % 0.06 in
17:27 50.7 °F 45.1 °F 29.6 in WSW 23 mph 27 mph 81 % 0.01 in
17:32 50.7 °F 45.5 °F 29.6 in SW 15 mph 27 mph 82 % 0.01 in
17:37 50.7 °F 45.5 °F 29.6 in SW 15 mph 30 mph 82 % 0 in
17:42 50.9 °F 45.3 °F 29.6 in SW 13 mph 30 mph 81 % 0 in
17:47 50.7 °F 45.1 °F 29.6 in SSW 11 mph 28 mph 81 % 0 in
17:52 50.7 °F 44.8 °F 29.6 in SW 14 mph 33 mph 80 % 0 in
18:02 50.7 °F 44.8 °F 29.6 in West 8 mph 33 mph 80 % 0 in
18:12 50.7 °F 44.4 °F 29.5 in SW 14 mph 30 mph 79 % 0 in
18:17 50.7 °F 44.8 °F 29.5 in WSW 14 mph 30 mph 80 % 0 in
18:22 50.5 °F 44.6 °F 29.5 in SW 15 mph 30 mph 80 % 0 in
18:32 50.5 °F 44.6 °F 29.5 in SSW 10 mph 22 mph 80 % 0 in
18:37 50.5 °F 44.2 °F 29.5 in SW 17 mph 27 mph 79 % 0 in
18:42 50.7 °F 44.1 °F 29.5 in SW 13 mph 27 mph 78 % 0 in
18:52 50.5 °F 43.9 °F 29.5 in SW 18 mph 27 mph 78 % 0 in
18:57 50.7 °F 44.1 °F 29.6 in WSW 13 mph 26 mph 78 % 0 in
19:02 50.5 °F 44.2 °F 29.6 in WSW 18 mph 24 mph 79 % 0 in
19:12 49.8 °F 43.9 °F 29.6 in WSW 17 mph 25 mph 80 % 0 in
19:17 49.6 °F 44.1 °F 29.6 in SW 11 mph 35 mph 81 % 0 in
19:22 49.1 °F 43.9 °F 29.6 in SW 16 mph 35 mph 82 % 0 in
19:32 48.6 °F 43.7 °F 29.6 in West 13 mph 26 mph 83 % 0 in
19:37 47.8 °F 43.2 °F 29.6 in WSW 31 mph 31 mph 84 % 0.01 in
19:42 47.1 °F 42.8 °F 29.6 in WSW 10 mph 31 mph 85 % 0.01 in
19:47 46.9 °F 43 °F 29.6 in WSW 16 mph 38 mph 86 % 0.02 in
19:52 46.9 °F 43 °F 29.6 in SW 12 mph 38 mph 86 % 0.02 in
19:57 47.1 °F 42.8 °F 29.6 in West 10 mph 28 mph 85 % 0.02 in
20:02 47.1 °F 42.8 °F 29.6 in WSW 11 mph 28 mph 85 % 0.02 in
20:12 46.9 °F 43 °F 29.6 in SSW 9 mph 25 mph 86 % 0.02 in
20:22 46.4 °F 43.3 °F 29.6 in West 12 mph 26 mph 89 % 0.02 in
20:27 46.4 °F 43.3 °F 29.6 in WSW 13 mph 22 mph 89 % 0.03 in
20:32 46.2 °F 43.5 °F 29.6 in WSW 12 mph 25 mph 90 % 0.03 in
20:42 46 °F 43.5 °F 29.6 in SSW 12 mph 25 mph 91 % 0.04 in
20:47 46 °F 43.5 °F 29.6 in West 12 mph 25 mph 91 % 0.05 in
20:52 45.1 °F 41.7 °F 29.6 in West 14 mph 25 mph 88 % 0.05 in
20:57 44.4 °F 40.8 °F 29.6 in WSW 24 mph 33 mph 87 % 0.06 in
21:02 43.9 °F 40.6 °F 29.6 in WSW 19 mph 33 mph 88 % 0.06 in
21:12 43 °F 39.9 °F 29.6 in West 17 mph 35 mph 89 % 0.06 in
21:17 43 °F 40.3 °F 29.6 in West 10 mph 32 mph 90 % 0.07 in
21:22 42.8 °F 40.1 °F 29.6 in WSW 5 mph 26 mph 90 % 0.07 in
21:27 42.8 °F 40.1 °F 29.6 in West 9 mph 23 mph 90 % 0.06 in
21:32 42.8 °F 40.1 °F 29.6 in SW 13 mph 22 mph 90 % 0.06 in
21:42 42.6 °F 39.9 °F 29.6 in WSW 22 mph 23 mph 90 % 0.06 in
21:47 42.4 °F 39.7 °F 29.6 in West 13 mph 27 mph 90 % 0.06 in
21:52 42.4 °F 39.7 °F 29.6 in SW 7 mph 27 mph 90 % 0.06 in
21:57 42.3 °F 39.6 °F 29.6 in West 16 mph 27 mph 90 % 0.05 in
22:02 42.3 °F 39.6 °F 29.6 in West 10 mph 24 mph 90 % 0.05 in
22:07 42.3 °F 39.2 °F 29.6 in WSW 14 mph 24 mph 89 % 0.06 in
22:12 42.1 °F 39 °F 29.6 in West 18 mph 24 mph 89 % 0.06 in
22:17 42.1 °F 39.4 °F 29.6 in WSW 11 mph 25 mph 90 % 0.07 in
22:22 42.1 °F 39 °F 29.6 in SW 14 mph 25 mph 89 % 0.07 in
22:32 41.9 °F 38.8 °F 29.6 in SW 15 mph 25 mph 89 % 0.08 in
22:37 41.9 °F 38.8 °F 29.6 in SW 19 mph 25 mph 89 % 0.07 in
22:42 41.9 °F 38.8 °F 29.6 in SW 12 mph 25 mph 89 % 0.07 in
22:52 42.1 °F 38.8 °F 29.6 in SW 12 mph 23 mph 88 % 0.06 in
22:57 42.1 °F 38.8 °F 29.6 in SW 12 mph 20 mph 88 % 0.05 in
23:02 42.1 °F 38.5 °F 29.6 in WSW 13 mph 21 mph 87 % 0.05 in
23:12 42.1 °F 38.5 °F 29.6 in WSW 11 mph 21 mph 87 % 0.03 in
23:17 42.1 °F 38.5 °F 29.6 in SSW 10 mph 21 mph 87 % 0.01 in
23:22 42.3 °F 38.3 °F 29.6 in SW 10 mph 21 mph 86 % 0.01 in
23:27 42.3 °F 38.3 °F 29.6 in SW 13 mph 19 mph 86 % 0 in
23:32 42.3 °F 38.3 °F 29.6 in SW 16 mph 19 mph 86 % 0 in
23:37 42.3 °F 38.3 °F 29.6 in SSW 12 mph 21 mph 86 % 0 in
23:42 42.4 °F 38.3 °F 29.6 in SW 13 mph 21 mph 85 % 0 in
23:52 42.4 °F 38.3 °F 29.6 in SSW 10 mph 20 mph 85 % 0 in
23:57 42.4 °F 37.9 °F 29.6 in WSW 12 mph 20 mph 84 % 0 in
Meteo18
Compliments of Weather Underground - 4 mb

Script developed by  Jim McMurry - jmcmurry@mwt.net Adapted for the template by  Wim van der Kuil - Leuven-Template.eu

You find our weather info also at:

European Weather Network

Weather Underground

Equipment we use:

Weather-station
Davis Vue

Weather-program
Meteohub

Weather-server
Raspberry PI 2 B+

Provider
1 and 1

Davis Vue

Meteohub

Raspberry PI 2 B+

1 and 1